Wetbulb
78.70 77.69 80.37 75.30 75.92 75.72 75.72 79.00 78.79 77.99 77.99 73.97 73.56 75.84 75.55 74.61 75.04 74.37 76.29 78.71 77.25 77.75 77.18 76.21 76.62 76.82 77.09 76.50 76.06 75.78 75.06 74.52 73.80 73.40 72.48 71.79 71.90 72.63 73.00 73.67 73.45 74.95 74.81
80.79 78.32 77.28 78.39 77.10 77.28 78.44 78.15 78.08 78.72 78.00 73.40 75.14 75.17 75.92 75.53 76.11 76.55 76.30 77.37 78.33 77.36 76.35 76.05 75.88 76.00 76.19 76.71 75.95 76.11 75.50 75.05 74.59 73.89 73.01 72.02 71.59 72.13 72.71 72.88 73.57 74.26 75.00
82.41 81.28 78.72 73.32 71.76 75.60 79.83 80.35 72.98 75.00 77.06 73.90 73.54 73.53 75.70 76.86 75.28 77.29 76.85 76.75 76.73 76.83 76.37 75.72 75.56 75.50 75.78 75.49 76.11 75.87 75.64 74.36 74.02 74.28 74.13 72.76 71.81 71.69 72.24 72.34 72.93 73.10 74.70
81.57 81.13 74.74 74.79 71.91 75.67 78.12 75.17 74.91 76.16 73.68 69.60 68.70 74.03 76.51 75.73 76.85 77.09 77.11 76.20 77.54 75.83 75.62 76.00 75.13 73.15 71.86 72.41 73.20 74.28 74.54 74.05 73.55 73.73 74.22 73.31 72.28 72.07 72.21 71.98 71.99 73.07 72.86
76.86 80.78 76.04 73.77 68.34 76.08 77.27 77.00 77.50 74.01 69.31 71.91 74.63 73.87 74.36 76.52 76.37 76.96 76.62 77.76 77.06 76.54 75.98 74.90 72.15 72.19 72.74 72.46 72.51 72.75 73.24 74.16 73.93 73.43 73.92 73.50 73.70 71.98 72.65 72.01 72.35 72.53 72.53
68.76 75.95 77.84 75.57 77.30 76.62 77.76 78.87 79.72 71.85 72.97 73.02 75.21 74.27 74.79 73.44 76.73 76.78 76.21 76.49 76.67 75.56 74.02 71.84 73.98 74.15 73.39 72.26 71.58 71.75 72.12 72.89 74.04 74.05 74.48 74.43 73.75 72.60 72.99 72.59 71.98 71.69 72.95
75.43 77.78 77.16 76.84 79.49 75.85 79.79 79.51 79.74 77.40 75.77 78.11 76.70 74.43 75.00 74.11 74.37 75.89 76.05 75.61 76.14 75.81 75.53 75.19 74.19 73.67 73.16 72.74 72.47 71.53 71.61 71.90 72.66 73.57 74.13 74.19 73.97 72.60 72.78 72.69 72.46 72.11 72.43
79.88 81.13 79.83 79.69 80.62 78.38 75.85 75.80 78.46 77.76 78.31 78.37 74.70 74.82 69.71 71.48 73.30 74.64 75.57 74.82 75.03 75.03 74.20 73.23 72.71 72.95 72.63 72.39 72.63 72.47 71.59 71.25 71.54 72.82 73.30 73.84 73.23 72.69 72.51 72.43 72.29 72.11 72.21
80.70 79.86 80.01 82.19 81.92 80.27 68.37 66.30 73.88 78.31 76.87 77.50 76.95 74.53 70.29 68.51 71.55 72.55 75.68 75.34 74.57 73.93 73.09 72.87 72.75 72.22 72.24 72.04 72.66 72.24 71.29 71.35 71.49 71.68 72.45 73.18 72.86 72.31 72.42 72.43 72.26 71.86 71.82
81.20 80.87 81.03 82.12 82.67 80.44 69.38 71.62 75.60 80.10 79.29 75.95 76.72 77.87 77.51 74.79 70.27 68.88 73.79 75.10 74.26 72.90 72.98 72.31 71.57 71.33 71.19 70.88 72.36 71.87 71.74 72.02 71.60 71.62 71.27 72.28 72.74 72.41 72.49 72.54 72.21 71.56 71.19
80.71 80.54 81.36 82.25 82.81 82.21 78.45 80.04 81.96 81.47 79.06 77.75 76.45 76.19 76.68 75.95 74.20 71.27 68.37 69.58 72.04 72.54 71.96 71.45 71.22 70.23 70.11 70.64 69.49 70.64 71.77 71.54 71.18 71.05 71.42 71.47 72.46 72.63 72.76 72.65 72.59 71.41 71.21
78.01 80.63 80.17 82.14 82.74 82.79 81.47 82.15 82.24 80.21 80.47 78.98 78.97 78.41 75.58 74.20 72.16 70.27 70.11 70.92 69.38 70.90 70.88 71.08 70.71 70.09 69.97 70.20 69.26 70.93 70.86 71.12 70.97 70.86 70.93 71.09 71.70 72.28 72.77 73.18 72.84 71.97 71.95
76.18 77.95 81.83 82.25 81.50 83.26 81.40 81.71 81.82 81.43 79.75 78.14 79.06 78.12 77.61 76.80 76.15 74.62 72.84 71.23 68.39 71.32 70.20 70.59 70.34 69.23 68.00 69.34 68.82 71.35 70.45 70.17 69.82 69.66 69.89 70.26 70.87 71.52 71.97 72.65 72.89 72.55 72.54
77.41 81.31 81.47 80.83 81.77 81.80 81.77 81.58 80.71 80.36 79.34 79.63 79.19 79.65 78.32 77.81 77.18 72.78 74.55 71.94 68.59 69.50 69.22 68.51 70.51 69.56 68.63 68.41 69.43 70.88 68.84 68.85 68.44 68.27 68.72 69.26 69.49 69.63 70.28 71.59 71.89 72.19 72.13
77.52 80.20 81.07 80.07 80.10 80.25 81.49 81.67 80.54 80.32 80.42 80.57 79.43 79.39 78.67 76.37 77.31 77.76 76.25 74.12 70.59 67.25 66.65 66.78 66.78 68.68 69.04 67.80 68.97 68.61 67.72 67.75 67.35 67.22 67.14 68.42 68.41 68.46 69.65 70.27 70.20 70.33 70.31
82.61 82.05 82.21 81.73 81.70 81.24 81.64 82.26 80.62 80.12 80.37 79.81 79.53 78.48 79.38 78.41 77.92 77.34 76.86 75.04 73.23 70.10 67.12 67.96 68.20 67.47 67.98 67.73 68.55 68.41 67.53 67.51 66.40 66.75 67.06 67.70 67.56 67.49 68.20 68.63 69.38 69.16 69.27
81.76 81.95 82.07 81.64 81.18 80.59 81.09 81.14 80.88 80.73 78.95 79.03 79.69 79.21 78.70 79.53 77.42 76.44 75.73 74.19 73.03 72.60 68.55 67.73 67.38 67.32 66.34 65.97 66.79 67.48 68.09 66.97 65.19 65.40 66.10 66.14 66.19 66.23 66.92 67.44 67.60 67.91 68.20
82.43 81.93 81.57 80.95 80.77 80.54 81.14 80.69 80.19 79.90 79.35 78.95 79.21 79.09 78.87 78.20 77.21 76.43 74.27 73.66 73.48 73.30 69.48 65.74 66.52 65.69 66.12 65.40 65.68 65.76 66.31 66.74 65.57 64.54 64.68 64.76 64.55 64.56 64.32 64.97 65.59 64.76 64.70
81.05 80.78 80.73 81.18 80.93 80.94 80.87 81.10 80.93 80.26 79.82 79.34 79.11 78.37 78.08 78.77 77.84 76.47 75.12 72.64 72.29 72.36 71.48 68.04 65.82 66.99 65.87 65.94 65.09 66.22 65.74 65.43 65.12 64.82 64.19 63.81 63.27 63.24 63.29 63.16 62.15 60.54 61.11
79.77 79.80 80.81 81.31 81.32 81.22 81.29 80.98 80.57 80.14 80.01 79.67 79.19 78.46 78.05 78.02 76.27 75.02 74.70 71.58 71.66 72.54 71.21 69.42 66.23 65.01 64.97 66.23 65.80 63.59 63.58 64.91 63.71 64.61 64.26 64.32 63.93 63.11 62.98 62.34 62.55 60.98 59.46
76.81 76.11 75.06 74.27 78.98 80.15 77.72 77.18 79.61 80.31 80.05 79.30 79.15 78.95 78.10 77.06 74.41 75.07 74.06 73.31 72.88 71.43 69.90 68.35 66.40 64.38 63.32 63.15 62.46 63.51 62.41 62.98 63.86 64.46 63.20 62.91 62.64 62.94 62.06 63.39 63.36 62.16 59.85
72.24 73.51 74.36 74.77 74.29 74.92 67.06 67.93 71.84 76.33 78.05 78.40 77.83 78.44 79.03 73.69 71.41 69.22 69.38 71.28 72.05 72.68 70.50 68.56 66.40 63.33 63.96 64.46 65.49 62.70 61.62 61.32 60.31 65.20 61.16 61.05 64.90 64.36 64.74 64.94 63.74 61.69 60.28
73.48 73.08 72.81 73.73 73.67 74.99 65.52 63.06 65.96 71.80 72.32 74.65 76.11 77.39 77.86 77.63 73.88 73.87 67.98 67.26 67.38 68.71 69.10 69.55 69.47 67.96 65.76 66.00 66.54 65.31 64.31 62.48 61.31 63.51 64.14 60.93 64.30 63.84 63.75 62.12 61.74 61.10 60.65
72.31 72.38 72.57 73.16 72.84 73.20 65.21 63.01 63.25 70.76 71.56 71.87 73.27 75.78 77.53 77.99 76.72 75.17 72.95 71.04 70.74 69.54 69.30 68.75 70.37 70.27 69.26 69.27 67.99 67.13 65.77 64.64 63.90 64.24 64.56 60.38 63.64 62.88 63.07 62.41 61.62 61.49 60.84
68.46 69.85 70.71 70.56 71.28 73.80 65.81 62.96 62.98 71.11 68.87 70.79 71.17 73.51 75.39 77.29 71.42 65.88 72.73 70.68 70.36 70.47 62.95 62.50 63.41 64.89 65.35 66.09 67.99 66.93 64.43 62.53 59.80 61.93 64.40 62.02 63.14 62.39 61.85 60.84 60.95 61.30 60.14
67.88 68.52 68.58 69.70 67.10 67.98 64.06 60.12 61.72 68.69 67.43 68.33 69.44 70.16 67.67 68.90 63.69 63.69 72.33 71.34 69.53 69.79 66.03 65.59 64.65 64.95 65.39 64.51 63.50 68.01 66.64 61.88 60.73 60.67 64.71 61.97 62.09 62.79 60.10 60.43 60.10 60.55 60.73
MSLP
1014.96 1014.82 1014.72 1014.23 1014.82 1014.29 1013.35 1013.37 1013.38 1012.95 1012.92 1013.79 1012.89 1013.53 1012.98 1012.76 1012.82 1013.26 1013.49 1013.69 1013.81 1013.51 1014.26 1014.76 1015.08 1015.32 1015.68 1016.02 1016.31 1016.53 1016.82 1017.08 1017.29 1017.82 1018.22 1018.52 1019.06 1019.30 1019.50 1019.85 1020.19 1020.50 1020.59
1014.80 1014.68 1014.62 1014.77 1014.54 1013.99 1013.19 1012.89 1013.32 1013.37 1013.00 1013.16 1013.20 1012.40 1012.25 1012.38 1012.29 1012.24 1012.63 1013.21 1013.60 1013.76 1014.35 1014.76 1014.96 1015.10 1015.26 1015.44 1015.74 1015.98 1016.26 1016.41 1016.79 1017.21 1017.59 1018.02 1018.58 1019.08 1019.56 1019.57 1019.87 1020.31 1020.40
1014.88 1014.60 1014.65 1014.87 1013.71 1014.14 1013.61 1013.52 1014.10 1013.78 1013.67 1012.93 1012.47 1012.06 1011.52 1011.11 1011.56 1011.83 1012.44 1013.03 1013.70 1014.06 1014.55 1014.81 1014.90 1014.92 1015.08 1014.99 1015.19 1015.31 1015.68 1016.05 1016.32 1016.63 1016.96 1017.41 1018.00 1018.62 1019.09 1019.41 1019.51 1020.08 1020.29
1014.20 1014.16 1015.26 1015.74 1014.08 1014.96 1014.02 1014.17 1014.16 1014.36 1014.82 1013.70 1012.72 1012.25 1011.51 1011.39 1011.80 1012.11 1012.43 1013.19 1013.56 1014.02 1014.49 1014.66 1014.89 1015.04 1015.09 1015.06 1014.99 1014.99 1015.42 1015.74 1015.87 1016.02 1016.27 1016.68 1017.34 1017.96 1018.43 1019.22 1019.47 1019.76 1020.10
1014.36 1013.82 1014.66 1014.94 1014.29 1014.80 1013.83 1014.34 1014.74 1015.62 1015.08 1014.17 1013.39 1011.88 1011.47 1011.46 1011.72 1011.98 1012.20 1012.53 1013.16 1013.69 1014.04 1014.74 1014.91 1015.02 1015.07 1015.07 1015.07 1015.11 1015.29 1015.33 1015.25 1015.29 1015.46 1015.68 1016.13 1017.02 1017.71 1018.45 1019.17 1019.57 1019.91
1013.50 1014.18 1013.90 1014.25 1014.41 1014.20 1014.35 1014.58 1014.42 1014.96 1015.70 1014.67 1013.51 1012.20 1011.70 1011.28 1011.65 1012.18 1012.53 1012.62 1012.81 1013.21 1013.89 1014.53 1014.77 1014.89 1015.04 1015.09 1015.13 1015.09 1015.03 1014.92 1014.67 1014.41 1014.18 1014.58 1015.32 1016.35 1017.07 1017.92 1018.49 1019.20 1019.68
1013.42 1013.55 1013.47 1014.27 1013.64 1013.94 1014.23 1014.34 1014.46 1014.78 1014.48 1013.96 1013.57 1012.64 1011.90 1011.45 1011.73 1012.07 1012.40 1012.80 1013.10 1013.34 1013.73 1014.11 1014.47 1014.74 1014.80 1014.96 1014.97 1014.86 1014.82 1014.71 1014.48 1014.06 1013.72 1013.95 1014.70 1015.70 1016.48 1017.35 1018.06 1018.69 1019.31
1012.83 1012.90 1013.55 1013.75 1013.69 1013.83 1014.52 1014.49 1014.26 1014.51 1014.32 1014.06 1014.13 1013.47 1012.44 1011.92 1011.82 1012.04 1012.39 1012.84 1013.28 1013.56 1014.05 1014.36 1014.57 1014.68 1014.62 1014.83 1014.75 1014.71 1014.69 1014.56 1014.29 1013.95 1013.77 1013.87 1014.57 1015.41 1016.19 1016.89 1017.68 1018.35 1019.03
1012.71 1013.24 1013.50 1013.55 1013.88 1013.95 1014.35 1014.56 1014.28 1013.63 1013.85 1013.63 1013.80 1013.55 1012.91 1012.65 1012.27 1012.02 1012.51 1012.82 1013.36 1013.79 1014.30 1014.31 1014.48 1014.82 1014.71 1014.58 1014.48 1014.69 1014.78 1014.55 1014.28 1014.04 1013.80 1013.87 1014.34 1015.10 1015.78 1016.50 1017.24 1017.96 1018.76
1012.23 1012.51 1012.72 1013.02 1013.46 1013.61 1014.04 1014.03 1014.19 1013.30 1013.61 1013.70 1013.40 1012.88 1012.75 1012.64 1012.87 1012.65 1012.54 1013.08 1013.54 1014.01 1014.39 1014.34 1014.52 1014.67 1014.63 1014.48 1014.43 1014.66 1014.65 1014.46 1014.27 1014.01 1013.84 1013.79 1014.16 1014.70 1015.36 1016.03 1016.75 1017.40 1018.40
1012.01 1012.02 1012.13 1012.46 1012.90 1012.99 1013.02 1012.79 1012.93 1013.12 1013.43 1013.56 1013.22 1012.87 1012.44 1012.39 1012.20 1011.83 1012.06 1013.08 1014.06 1014.14 1014.39 1014.47 1014.09 1014.36 1014.49 1014.57 1014.67 1014.73 1014.58 1014.36 1014.20 1013.99 1013.86 1013.76 1013.76 1014.15 1014.77 1015.05 1016.00 1016.75 1017.73
1011.61 1011.72 1011.79 1012.08 1012.44 1012.87 1013.00 1013.08 1013.22 1013.47 1013.40 1013.46 1013.22 1012.87 1012.58 1012.52 1012.04 1011.39 1011.32 1012.71 1013.23 1014.09 1014.27 1014.33 1014.18 1014.27 1014.48 1014.60 1014.49 1014.65 1014.65 1014.46 1014.25 1014.07 1013.76 1013.73 1013.66 1013.86 1014.23 1014.63 1015.24 1015.94 1017.04
1011.26 1011.35 1011.78 1011.97 1012.26 1012.52 1012.76 1013.05 1013.05 1013.12 1013.07 1013.20 1013.01 1012.85 1012.69 1012.42 1011.74 1011.75 1011.81 1012.71 1013.27 1013.72 1014.21 1014.27 1014.29 1014.24 1014.18 1014.41 1014.57 1014.55 1014.70 1014.76 1014.58 1014.30 1014.02 1013.91 1013.70 1013.74 1013.93 1014.12 1014.43 1015.13 1016.15
1011.50 1011.43 1011.61 1011.62 1011.86 1012.12 1012.31 1012.51 1012.69 1012.62 1012.58 1012.47 1012.68 1012.85 1012.84 1012.49 1012.05 1012.22 1012.41 1012.85 1013.33 1013.55 1014.37 1014.60 1014.56 1014.38 1014.21 1014.33 1014.58 1014.65 1014.83 1014.98 1014.91 1014.62 1014.29 1014.07 1013.88 1013.85 1013.63 1013.47 1013.10 1014.54 1014.96
1011.61 1011.49 1011.53 1011.61 1011.77 1011.85 1011.89 1011.96 1012.11 1012.08 1012.12 1012.30 1012.42 1012.46 1012.61 1012.44 1012.44 1012.02 1012.06 1012.39 1013.09 1013.55 1013.86 1014.52 1014.51 1014.31 1014.33 1014.45 1014.56 1014.73 1014.95 1015.19 1015.12 1014.86 1014.61 1014.35 1014.02 1013.80 1013.68 1012.86 1013.47 1010.90 1015.42
1011.84 1011.76 1011.86 1011.92 1011.86 1011.72 1011.69 1011.82 1011.97 1012.00 1012.04 1012.21 1012.14 1012.11 1012.19 1012.17 1011.93 1011.79 1011.50 1011.97 1012.61 1013.12 1013.53 1013.97 1014.29 1014.42 1014.37 1014.57 1014.64 1014.83 1015.11 1015.28 1015.38 1015.07 1014.92 1014.59 1014.26 1014.09 1013.86 1013.48 1013.38 1014.37 1014.70
1011.88 1011.90 1011.92 1011.94 1011.88 1011.81 1011.78 1011.83 1011.88 1011.93 1012.06 1012.09 1012.06 1012.01 1011.93 1011.74 1011.87 1011.85 1012.08 1012.89 1013.25 1013.26 1013.78 1014.45 1014.40 1014.39 1014.54 1014.83 1014.78 1014.71 1014.96 1015.23 1015.49 1015.50 1015.40 1015.02 1014.67 1014.44 1014.32 1014.17 1014.40 1014.57 1014.72
1011.59 1011.67 1011.76 1011.76 1011.67 1011.63 1011.61 1011.64 1011.65 1011.65 1011.79 1011.83 1011.72 1011.56 1011.49 1011.30 1011.40 1011.78 1012.41 1011.96 1012.94 1012.71 1013.49 1014.05 1014.39 1014.45 1014.55 1014.92 1014.91 1014.97 1015.01 1015.09 1015.28 1015.70 1015.62 1015.42 1015.36 1014.98 1014.67 1014.61 1014.81 1015.20 1014.84
1011.52 1011.46 1011.33 1011.19 1011.27 1011.31 1011.31 1011.28 1011.30 1011.32 1011.29 1011.30 1011.32 1011.23 1011.06 1010.86 1010.97 1011.63 1011.90 1012.53 1012.49 1013.19 1013.23 1013.39 1013.61 1013.96 1014.32 1014.69 1014.85 1014.86 1014.95 1015.00 1015.06 1015.55 1015.75 1015.45 1015.43 1015.44 1015.10 1014.90 1015.09 1015.58 1015.64
1011.40 1011.35 1011.24 1011.06 1011.00 1011.01 1010.93 1010.80 1010.76 1010.76 1010.76 1010.76 1010.85 1010.87 1010.72 1010.51 1010.67 1011.08 1011.67 1012.18 1012.18 1012.63 1012.92 1013.10 1013.21 1013.45 1013.71 1014.17 1014.41 1014.64 1014.86 1014.89 1015.08 1015.10 1015.49 1015.54 1015.32 1015.54 1015.48 1015.33 1015.24 1015.32 1015.64
1011.46 1011.41 1011.35 1011.31 1010.99 1010.94 1011.35 1011.14 1010.74 1010.40 1010.27 1010.27 1010.23 1010.20 1010.14 1010.16 1010.12 1010.32 1011.14 1011.66 1012.00 1012.37 1012.56 1012.54 1012.73 1012.83 1013.37 1013.90 1014.02 1013.88 1014.39 1014.76 1014.94 1015.14 1015.43 1015.59 1015.40 1015.24 1015.67 1015.51 1015.56 1015.83 1016.02
1011.71 1011.50 1011.43 1011.27 1011.08 1011.06 1011.46 1011.51 1011.41 1011.13 1010.61 1010.25 1010.07 1009.79 1009.63 1009.61 1009.81 1009.95 1010.17 1010.63 1011.25 1011.57 1011.90 1011.97 1012.04 1012.05 1012.48 1013.04 1013.26 1013.49 1014.06 1014.54 1014.84 1014.82 1015.29 1015.31 1015.27 1015.35 1015.26 1015.49 1015.57 1015.98 1016.34
1012.15 1012.03 1011.60 1011.45 1011.40 1011.18 1011.08 1011.10 1011.23 1011.18 1010.90 1010.36 1009.93 1009.69 1009.40 1009.14 1009.26 1009.99 1010.25 1010.66 1010.55 1010.78 1010.98 1011.47 1011.56 1011.44 1011.83 1012.21 1012.62 1013.01 1013.24 1013.58 1013.93 1014.38 1014.78 1015.08 1015.08 1015.42 1015.44 1016.00 1015.99 1016.05 1016.27
1012.38 1012.19 1011.91 1011.63 1011.25 1010.88 1010.96 1010.92 1010.93 1010.85 1010.51 1010.25 1009.78 1009.39 1008.88 1008.72 1008.85 1009.50 1009.97 1010.23 1010.27 1010.50 1010.63 1010.95 1011.04 1011.13 1011.18 1011.75 1012.25 1012.71 1013.02 1013.39 1013.57 1013.89 1014.23 1014.92 1015.10 1015.48 1015.59 1016.09 1016.16 1016.04 1016.09
1012.42 1012.15 1011.75 1011.33 1011.10 1010.43 1010.59 1010.71 1010.60 1010.35 1010.01 1009.62 1009.44 1009.07 1008.58 1008.19 1008.05 1008.73 1009.39 1009.74 1009.99 1010.11 1010.44 1010.70 1010.70 1010.64 1010.86 1011.40 1011.92 1012.59 1012.99 1013.30 1013.41 1013.59 1013.95 1014.30 1014.96 1015.52 1015.89 1015.88 1016.00 1016.00 1015.97
1012.15 1011.84 1011.39 1011.11 1010.85 1010.46 1010.26 1010.07 1010.14 1009.74 1009.44 1009.19 1009.15 1008.59 1008.20 1008.16 1007.87 1007.92 1008.73 1009.19 1009.53 1009.68 1010.16 1010.76 1010.96 1010.99 1010.92 1011.45 1011.95 1012.30 1012.41 1012.71 1012.71 1013.06 1013.24 1013.84 1014.48 1014.89 1015.61 1015.70 1016.03 1016.14 1016.16
Wind_Speed
3 1 2 3 7 7 5 6 3 3 3 6 7 8 6 4 9 3 7 18 14 13 11 12 11 12 13 17 19 21 23 22 20 20 21 21 18 14 13 13 13 13 14
1 2 4 3 2 7 3 3 3 5 2 5 5 6 4 6 5 5 8 6 11 9 7 8 8 9 12 13 17 21 23 22 21 23 25 24 23 14 13 15 14 15 12
2 5 4 2 5 7 4 1 4 5 4 5 7 8 5 3 6 5 9 6 6 8 7 7 6 5 6 9 15 19 20 18 19 22 24 25 24 20 16 14 12 14 12
4 6 9 3 11 11 7 6 2 4 10 1 5 8 5 5 8 7 7 6 4 6 6 8 6 4 3 5 6 6 14 15 17 21 24 25 27 24 19 16 12 12 13
8 5 8 6 8 10 3 7 6 13 7 9 11 3 4 4 5 7 6 6 6 5 4 7 4 3 4 3 4 4 6 11 11 17 24 27 29 28 23 21 16 10 10
11 8 4 6 8 5 5 4 5 7 7 8 9 6 5 1 6 5 8 6 5 6 6 6 4 3 6 4 4 5 6 8 10 13 16 25 25 28 25 24 23 19 13
12 12 0 5 6 2 3 4 2 5 5 3 5 7 2 4 6 7 6 3 5 4 6 4 4 1 4 7 7 6 5 8 11 11 9 15 24 28 26 25 23 20 14
6 3 4 2 5 2 13 12 3 2 1 2 4 5 4 3 5 4 5 5 6 4 6 5 4 3 0 4 7 6 3 8 9 10 7 15 24 25 25 26 24 21 17
5 7 8 0 2 4 8 11 14 2 1 3 5 2 3 4 4 4 4 5 5 4 5 5 4 2 4 3 5 5 5 8 9 8 6 11 20 24 26 25 25 23 20
6 5 5 4 3 4 9 12 13 2 2 4 3 3 2 1 1 3 2 4 5 6 3 3 4 3 4 3 5 9 8 10 10 7 6 5 20 22 24 26 27 26 24
4 6 5 6 3 3 2 3 2 1 3 4 4 3 3 2 6 5 1 3 4 4 4 2 3 2 3 4 3 6 10 10 8 7 8 7 11 22 25 29 30 31 29
7 7 7 3 3 2 4 3 1 4 3 4 3 4 3 3 3 6 4 1 1 4 4 2 3 2 3 2 5 7 9 8 8 9 8 5 4 13 21 29 31 32 30
5 7 6 3 3 2 5 5 2 4 4 3 3 3 4 5 3 5 4 3 2 3 2 3 2 2 1 1 5 8 9 7 7 8 9 10 7 4 15 24 29 31 30
5 3 6 3 4 4 5 4 4 5 5 1 2 2 4 5 3 3 2 1 3 1 2 3 1 2 3 3 6 6 6 7 7 7 7 7 9 8 3 14 24 30 31
5 5 3 3 4 5 6 5 4 5 3 3 5 5 5 5 3 1 1 2 2 3 1 2 2 1 4 4 5 4 6 8 8 7 6 5 8 10 9 12 13 30 27
5 6 4 4 5 5 5 4 4 5 4 3 4 4 2 3 3 4 2 4 3 3 2 2 2 3 4 3 4 5 5 6 8 9 6 6 8 10 10 10 5 11 16
5 5 5 5 6 7 6 5 5 5 6 6 5 6 6 4 4 5 5 4 3 2 1 1 1 3 2 3 3 2 5 4 4 8 7 8 9 9 10 8 8 5 8
4 4 5 6 6 7 7 6 6 6 6 6 6 7 7 4 6 4 4 4 2 2 3 5 4 2 3 3 1 1 3 3 4 5 5 8 8 7 9 10 7 6 2
5 5 6 6 7 7 7 6 6 6 7 7 7 7 7 7 6 3 3 4 2 3 4 4 4 3 3 4 4 3 3 3 4 5 4 6 6 6 7 8 7 7 8
4 5 6 6 6 6 7 7 7 7 6 6 7 9 8 8 7 7 4 6 7 4 4 4 4 4 4 5 4 5 4 3 4 4 5 4 4 5 5 6 6 6 8
3 6 6 9 8 6 5 8 5 5 5 6 7 7 8 11 10 9 5 7 6 4 4 4 3 4 4 3 4 4 4 3 2 2 2 2 3 4 3 5 6 8 6
5 5 5 5 6 4 4 8 8 7 7 7 8 8 7 5 5 8 9 12 8 6 7 4 4 5 6 5 4 4 5 3 3 3 3 3 3 2 4 4 9 8 7
6 6 4 4 5 5 6 6 7 5 7 8 9 9 8 6 9 6 5 4 9 7 4 0 2 2 5 6 5 3 0 3 3 4 4 3 2 3 4 4 9 9 8
6 6 6 7 7 4 6 4 5 6 6 8 9 11 10 9 8 8 7 7 7 6 5 5 4 2 6 5 6 3 3 4 3 4 4 2 2 2 2 4 7 8 8
9 9 9 8 10 5 7 10 5 6 8 6 7 9 9 10 8 11 9 7 7 7 6 7 4 4 11 11 7 5 4 4 4 4 4 3 3 3 2 1 2 5 7
11 9 10 9 11 11 12 10 8 7 9 5 6 9 4 8 7 17 11 10 10 9 9 6 4 4 9 7 8 2 4 4 3 3 5 4 4 4 3 2 2 2 2
Wind_Direction
260 218 201 254 160 263 239 236 224 302 327 121 173 208 254 225 157 160 175 178 189 167 195 211 212 217 217 222 219 215 214 220 217 217 205 218 237 240 242 239 229 215 196
295 311 245 10 240 254 288 304 360 315 330 245 225 229 242 222 153 207 122 165 157 151 178 192 203 220 231 237 227 222 221 222 226 217 210 213 216 226 236 229 216 214 196
264 284 8 331 271 300 244 283 344 359 357 4 340 322 274 257 129 106 100 118 126 125 151 165 182 203 248 268 241 232 223 230 228 218 215 213 208 212 219 229 219 204 201
207 261 102 32 287 287 264 122 4 315 28 281 286 291 289 82 91 79 90 111 137 134 145 145 154 170 226 274 300 278 236 246 246 230 221 217 205 211 200 206 218 203 196
337 227 130 196 250 256 330 52 37 45 336 321 284 261 346 123 127 113 107 102 111 122 144 156 168 222 256 276 275 274 287 292 269 241 231 220 210 200 193 188 192 197 205
251 268 147 208 227 273 98 79 95 118 240 246 288 326 260 83 115 117 112 133 130 128 128 152 188 215 235 256 252 262 277 304 305 288 252 221 197 196 188 187 186 192 199
212 240 115 248 240 342 67 89 330 195 198 302 316 322 320 130 153 131 124 100 111 112 117 76 63 101 201 230 237 251 304 325 330 319 257 206 191 191 188 187 186 182 191
279 313 323 285 1 37 23 356 259 236 86 301 269 308 341 355 40 106 114 128 92 113 98 91 97 26 68 225 222 224 346 337 331 332 284 216 189 191 190 191 184 181 181
242 163 218 14 327 52 87 272 282 205 291 306 306 189 338 21 339 18 121 107 104 96 111 132 140 113 289 298 303 94 10 347 329 317 318 197 188 193 193 192 186 181 182
217 264 191 194 217 141 153 194 241 10 300 290 285 234 242 168 302 333 111 131 118 104 81 60 118 179 259 346 48 51 8 344 323 308 289 251 207 202 198 192 188 180 189
230 248 232 196 175 247 112 283 352 7 321 301 348 338 328 50 250 208 141 67 109 116 88 89 63 358 335 56 44 38 10 352 339 322 298 266 224 211 201 199 192 185 191
223 222 246 215 152 261 277 277 240 280 258 303 326 319 300 287 286 302 83 17 85 117 125 106 66 15 50 89 66 59 23 20 39 36 23 323 268 213 207 209 198 186 189
289 193 216 199 220 227 254 256 259 232 263 270 296 315 312 315 331 341 51 18 343 133 116 81 25 37 75 272 52 27 49 36 41 44 35 27 39 200 217 213 201 191 189
293 98 199 185 226 251 259 271 236 238 248 196 292 279 289 294 356 192 36 33 336 80 114 35 347 358 275 91 58 63 79 36 35 29 27 26 39 51 287 216 190 190 188
280 267 299 359 311 300 286 280 272 278 297 262 252 224 228 268 259 226 118 140 137 286 100 180 231 95 338 93 82 75 93 53 38 23 21 24 34 35 13 218 206 171 188
334 337 334 301 291 265 259 264 266 274 283 294 256 265 257 270 335 284 205 118 144 225 214 145 186 75 22 58 74 95 102 97 41 33 37 44 47 42 40 50 115 180 182
273 278 281 280 276 280 284 278 274 280 287 277 268 265 258 238 263 298 5 46 334 297 61 127 134 143 115 52 19 86 149 123 90 40 36 47 52 55 51 74 85 124 185
278 270 251 256 264 270 274 273 271 275 283 296 289 255 252 245 225 239 292 204 130 152 140 172 190 169 152 162 126 12 112 121 114 73 60 62 49 51 68 67 74 57 205
289 289 281 255 244 249 259 261 260 262 261 264 268 265 267 250 230 202 229 123 345 219 182 170 180 172 145 165 197 166 166 151 114 156 131 93 86 66 66 72 76 64 70
340 303 280 257 257 258 257 249 243 245 260 267 266 263 263 271 274 230 207 161 219 219 212 194 179 146 157 176 185 180 178 215 155 149 81 90 155 104 90 109 90 72 70
14 8 1 344 325 285 1 1 320 276 255 254 250 254 260 260 260 211 182 194 201 206 237 205 189 148 168 159 216 215 161 170 114 151 145 228 198 151 159 153 140 126 133
3 352 347 337 346 344 32 45 22 344 329 308 294 284 267 174 192 149 147 162 177 188 227 226 209 179 188 173 198 173 153 169 173 177 151 234 186 129 107 83 116 136 156
333 319 322 321 310 310 357 23 10 334 313 297 293 287 280 285 169 171 150 206 147 155 150 293 272 257 143 172 160 174 114 144 172 156 193 146 112 112 106 119 136 148 163
316 305 299 291 284 266 297 307 308 294 284 282 278 285 264 264 196 182 176 195 204 185 193 218 225 193 138 154 148 139 140 119 85 162 164 146 141 116 113 123 164 158 164
302 297 294 291 275 276 285 275 267 269 280 270 285 276 282 270 207 189 177 193 202 202 108 114 87 172 146 144 147 139 183 172 194 175 181 129 155 123 174 218 200 175 166
287 282 284 294 299 293 277 262 224 268 278 285 268 266 304 6 247 178 195 184 197 203 158 137 111 98 136 152 148 194 192 196 204 137 174 134 137 153 165 193 185 172 154